Погода в Крутой Горке

Россия / Курганская область     55°23′53″N   63°15′47″E
темп.,
°C
ветер,
м/с
пор.,
м/с
влажн.,
%
обл.,
%
осадки,
мм/ч
давл.,
гПа
погр.,
м
24 сентября, пт
пт2423:00+4ююв33685 0.0 103027
02:00+3ю33725 0.0 103033
05:00+2ююз33775 0.0 103033
08:00+4ююз25715 0.0 1030124
11:00+11ююз4545100 0.0 1030663
14:00+13юз4536100 0.0 10281034
17:00+13юз3538100 0.0 1028859
20:00+8ю3351100 0.0 102828
25 сентября, сб
сб2523:00+7ююз335393 0.0 102743
02:00+6ююз355713 0.0 102775
05:00+4ююз346119 0.0 102757
08:00+6ю36545 0.0 1025143
11:00+13ю34339 0.0 1024610
14:00+16ююв342625 0.0 10221139
17:00+15юв3529100 0.0 1021538
20:00+10вюв364069 0.0 102185
26 сентября, вс
вс2623:00+7вюв485068 0.0 1021124
02:00+6в51059100 0.0 1021200
05:00+6вюв51173100 0.0 1022358
08:00+6в71469100 0.0 1022449
11:00+9вюв81254100 0.0 1022763
14:00+10вюв81043100 0.0 10211116
17:00+10в71028100 0.0 10211176
20:00+8в81333100 0.0 1021989
27 сентября, пн
пн2723:00+6в81441100 0.0 1022894
02:00+5в81552100 0.0 1021762
05:00+3в8155997 0.0 1021768
08:00+2всв91765100 0.0 1022794
11:00+5в111451100 0.0 10211037
14:00+9всв10133748 0.0 10211454
17:00+8всв913395 0.0 10211665
20:00+5всв7145078 0.0 1022679
28 сентября, вт
вт2823:00+3всв813656 0.0 1022774
02:00+4всв81258100 0.0 10221356
05:00+4св71154100 0.0 10221468
08:00+4св71160100 0.0 10221076
11:00+6св9114899 0.0 10211660
14:00+9св8938100 0.0 10201919
17:00+8св784394 0.0 10211764
20:00+3ссв5106592 0.0 1022458